Weather History for McAlester, OK

Change the Weather History Date:

Tuesday, September 24, 2013

  Actual Average Record
Temperature  
Mean Temperature 70 °F -  
Max Temperature 86 °F 79 °F 93 °F (1954)
Min Temperature 55 °F 58 °F 37 °F (1989)
Cooling Degree Days 4    
Growing Degree Days 20 (Base 50)    
Moisture  
Dew Point 51 °F    
Average Humidity 60    
Maximum Humidity 93    
Minimum Humidity 23    
Precipitation  
Precipitation 0.00 in - - ()
Sea Level Pressure  
Sea Level Pressure 29.88 in    
Wind  
Wind Speed 4 mph (WNW)    
Max Wind Speed 18 mph    
Max Gust Speed 23 mph    
Visibility 10 miles    
Events      
Averages and records for this station are not official NWS values.
T = Trace of Precipitation, MM = Missing Value Source: NWS Daily Summary

Daily Weather History Graph

Daily Weather History Graph

Search for Another Location

Airport:

Trip Planner

Search our weather history database for the weather conditions in past years. The results will help you decide how hot, cold, wet, or windy it might be!

Date:

Astronomy

Sep. 24, 2013 Rise Set
Actual Time 7:12 AM CDT 7:16 PM CDT
Civil Twilight 6:47 AM CDT 7:41 PM CDT
Nautical Twilight 6:18 AM CDT 8:11 PM CDT
Astronomical Twilight 5:48 AM CDT 8:40 PM CDT
Moon 10:47 PM CDT (9/24) 12:16 PM CDT (9/24)
Length of Visible Light 12h 54m
Length of Day
12h 03m
Waning Gibbous, 73% of the Moon is Illuminated
Sep 24
Waning Gibbous
Sep 26
Last Quarter
Oct 4
New
Oct 11
First Quarter
Oct 18
Full

Hourly Weather History & Observations

Time (CDT) Temp. Dew Point Humidity Pressure Visibility Wind Dir Wind Speed Gust Speed Precip Events Conditions
12:53 AM 66.0 °F 54.0 °F 65% 29.86 in 10.0 mi Calm Calm - N/A   Mostly Cloudy
1:53 AM 60.1 °F 54.0 °F 80% 29.87 in 10.0 mi Calm Calm - N/A   Clear
2:53 AM 57.9 °F 54.0 °F 87% 29.88 in 10.0 mi Calm Calm - N/A   Partly Cloudy
3:53 AM 57.0 °F 54.0 °F 89% 29.88 in 10.0 mi Calm Calm - N/A   Scattered Clouds
4:53 AM 55.9 °F 54.0 °F 93% 29.88 in 10.0 mi Calm Calm - N/A   Partly Cloudy
5:53 AM 55.0 °F 53.1 °F 93% 29.89 in 10.0 mi SSW 3.5 mph - N/A   Clear
6:53 AM 55.9 °F 53.1 °F 90% 29.88 in 10.0 mi Calm Calm - N/A   Scattered Clouds
7:53 AM 55.9 °F 54.0 °F 93% 29.90 in 10.0 mi Calm Calm - N/A   Clear
8:53 AM 64.9 °F 55.9 °F 73% 29.92 in 10.0 mi West 9.2 mph - N/A   Clear
9:53 AM 72.0 °F 57.0 °F 59% 29.91 in 10.0 mi SW 10.4 mph - N/A   Partly Cloudy
10:53 AM 79.0 °F 51.1 °F 38% 29.91 in 10.0 mi WNW 11.5 mph - N/A   Partly Cloudy
11:53 AM 80.1 °F 48.9 °F 34% 29.91 in 10.0 mi NW 12.7 mph 20.7 mph N/A   Clear
12:53 PM 82.9 °F 46.9 °F 28% 29.89 in 10.0 mi NW 16.1 mph 23.0 mph N/A   Clear
1:53 PM 84.9 °F 46.0 °F 26% 29.87 in 10.0 mi West 15.0 mph 23.0 mph N/A   Clear
2:53 PM 84.9 °F 43.0 °F 23% 29.86 in 10.0 mi NW 13.8 mph 23.0 mph N/A   Clear
3:53 PM 84.9 °F 45.0 °F 25% 29.86 in 10.0 mi WNW 15.0 mph - N/A   Clear
4:53 PM 84.9 °F 46.9 °F 27% 29.85 in 10.0 mi NNW 18.4 mph 23.0 mph N/A   Clear
5:53 PM 84.0 °F 48.0 °F 28% 29.84 in 10.0 mi NW 13.8 mph - N/A   Clear
6:53 PM 80.1 °F 50.0 °F 35% 29.85 in 10.0 mi NNW 8.1 mph - N/A   Clear
7:53 PM 73.9 °F 51.1 °F 45% 29.85 in 10.0 mi NNW 4.6 mph - N/A   Clear
8:53 PM 63.0 °F 53.1 °F 70% 29.86 in 10.0 mi Calm Calm - N/A   Partly Cloudy
9:53 PM 61.0 °F 53.1 °F 75% 29.87 in 10.0 mi Calm Calm - N/A   Partly Cloudy
10:53 PM 59.0 °F 54.0 °F 83% 29.87 in 10.0 mi Calm Calm - N/A   Clear
11:53 PM 57.0 °F 53.1 °F 87% 29.87 in 10.0 mi Calm Calm - N/A   Clear